Location: Deer Path Park
(40.5570°N, 74.8450°W)
Time: 12:10:47
(UTC-04:00)

Iridium 49 - Visible Passes

Search period start: 05 May 2016 00:00
Search period end: 15 May 2016 00:00
Orbit: 776 x 779 km, 86.4° (Epoch: 05 May)

Date Brightness Start Highest point End Pass type
(mag) Time Alt. Az. Time Alt. Az. Time Alt. Az.
05 May 8.6 00:36:32 10° ENE 00:37:28 10° ENE 00:37:28 10° ENE visible
05 May 6.4 02:13:43 10° N 02:17:56 59° N 02:17:56 59° N visible
06 May 6.9 01:40:18 10° N 01:44:26 45° NE 01:44:26 45° NE visible
06 May 7.8 03:22:15 10° NW 03:24:54 17° WNW 03:24:54 17° WNW visible
07 May 7.6 01:07:14 10° NNE 01:10:57 27° ENE 01:10:57 27° ENE visible
07 May 7.2 02:47:48 10° NNW 02:51:25 30° WNW 02:51:25 30° WNW visible
08 May 8.2 00:34:48 10° NE 00:37:29 15° ENE 00:37:29 15° ENE visible
08 May 6.6 02:13:53 10° N 02:17:57 49° NW 02:17:57 49° NW visible
09 May 6.6 01:40:18 10° N 01:44:28 56° NNE 01:44:28 56° NNE visible
09 May 8.2 03:23:34 10° NW 03:24:56 12° WNW 03:24:56 12° WNW visible
10 May 7.2 01:07:00 10° NNE 01:11:00 37° ENE 01:11:00 37° ENE visible
10 May 7.6 02:48:22 10° NNW 02:51:28 22° WNW 02:51:28 22° WNW visible
11 May 7.8 00:34:07 10° NNE 00:37:33 22° ENE 00:37:33 22° ENE visible
11 May 7.0 02:14:11 10° NNW 02:18:01 36° WNW 02:18:01 36° WNW visible
12 May 8.4 00:02:16 10° NE 00:04:05 12° ENE 00:04:05 12° ENE visible
12 May 6.5 01:40:24 10° N 01:44:33 56° NNW 01:44:33 56° NNW visible
13 May 6.7 01:06:55 10° N 01:11:06 50° NE 01:11:06 50° NE visible
13 May 8.0 02:49:13 10° NW 02:51:34 15° WNW 02:51:34 15° WNW visible
14 May 7.4 00:33:46 10° NNE 00:37:40 30° ENE 00:37:40 30° ENE visible
14 May 7.4 02:14:36 10° NNW 02:18:08 27° WNW 02:18:08 27° WNW visible
